Weather History for KCPC - February, 2014

Change the Weather History Date:

Tuesday, February 25, 2014

  Actual Average (KLBT) Record (KLBT)
Temperature  
Mean Temperature 54 °F 49 °F  
Max Temperature 72 °F 61 °F 74 °F (2011)
Min Temperature 38 °F 37 °F 25 °F (2009)
Degree Days  
Heating Degree Days 10 16  
Month to date heating degree days 464  
Since 1 July heating degree days 2183  
Growing Degree Days 4 (Base 50)    
Moisture  
Dew Point 38 °F    
Average Humidity 54    
Maximum Humidity 90    
Minimum Humidity 25    
Precipitation  
Precipitation 0.00 in 0.11 in 0.82 in (2015)
Month to date precipitation 2.57  
Year to date precipitation 5.54  
Sea Level Pressure  
Sea Level Pressure 29.98 in    
Wind  
Wind Speed 4 mph (North)    
Max Wind Speed 16 mph    
Max Gust Speed 24 mph    
Visibility 10 miles    
Events      
T = Trace of Precipitation, MM = Missing Value Source: NWS Daily Summary

Daily Weather History Graph

Daily Weather History Graph

Search for Another Location

Airport or City:

Trip Planner

Search our weather history database for the weather conditions in past years. The results will help you decide how hot, cold, wet, or windy it might be!

Date:

Astronomy

Feb. 25, 2014 Rise Set
Actual Time 6:48 AM EST 6:07 PM EST
Civil Twilight 6:23 AM EST 6:32 PM EST
Nautical Twilight 5:54 AM EST 7:02 PM EST
Astronomical Twilight 5:25 AM EST 7:31 PM EST
Moon 3:34 AM EST (2/25) 2:18 PM EST (2/25)
Length of Visible Light 12h 09m
Length of Day
11h 18m
Waning Crescent, 18% of the Moon is Illuminated
Feb 25
Waning Crescent
Mar 1
New
Mar 8
First Quarter
Mar 16
Full
Mar 23
Last Quarter

Hourly Weather History & Observations

Time (EST) Temp. Windchill Dew Point Humidity Pressure Visibility Wind Dir Wind Speed Gust Speed Precip Events Conditions
12:15 AM 43.9 °F - 39.4 °F 84% 30.10 in 10.0 mi Calm Calm - N/A   Clear
12:35 AM 43.9 °F - 39.6 °F 85% 30.11 in 10.0 mi Calm Calm - N/A   Clear
12:55 AM 42.1 °F - 39.2 °F 90% 30.11 in 10.0 mi Calm Calm - N/A   Clear
1:15 AM 42.4 °F - 39.6 °F 90% 30.11 in 10.0 mi Calm Calm - N/A   Clear
1:35 AM 42.8 °F - 39.6 °F 88% 30.10 in 10.0 mi Calm Calm - N/A   Clear
1:55 AM 43.0 °F - 40.3 °F 90% 30.10 in 10.0 mi Calm Calm - N/A   Clear
2:15 AM 45.9 °F 42.9 °F 41.0 °F 83% 30.09 in 10.0 mi NNE 5.8 mph - N/A   Clear
2:30 AM 47.5 °F - 35.1 °F 62% 30.08 in 10.0 mi NE 8.1 mph - N/A   Clear
2:55 AM 46.6 °F - 29.8 °F 52% 30.07 in 10.0 mi NE 8.1 mph - N/A   Clear
3:10 AM 45.9 °F 41.7 °F 29.5 °F 53% 30.06 in 10.0 mi ENE 8.1 mph - N/A   Clear
4:55 AM 43.3 °F - 28.8 °F 56% 30.05 in 10.0 mi Calm Calm - N/A   Clear
5:15 AM 41.9 °F - 28.9 °F 60% 30.05 in 10.0 mi Calm Calm - N/A   Clear
5:35 AM 41.4 °F - 32.9 °F 72% 30.06 in 10.0 mi Calm Calm - N/A   Clear
5:55 AM 40.6 °F - 32.0 °F 71% 30.06 in 10.0 mi Calm Calm - N/A   Clear
6:15 AM 40.5 °F - 31.3 °F 70% 30.05 in 10.0 mi Calm Calm - N/A   Clear
6:35 AM 39.2 °F - 30.6 °F 71% 30.05 in 10.0 mi Calm Calm - N/A   Clear
6:55 AM 38.8 °F - 30.4 °F 72% 30.03 in 10.0 mi Calm Calm - N/A   Clear
7:15 AM 40.3 °F - 33.1 °F 75% 30.06 in 10.0 mi Calm Calm - N/A   Clear
7:35 AM 41.0 °F - 32.0 °F 70% 30.06 in 10.0 mi Calm Calm - N/A   Clear
7:55 AM 42.3 °F - 32.0 °F 67% 30.05 in 10.0 mi Calm Calm - N/A   Clear
8:15 AM 45.0 °F 43.5 °F 32.0 °F 60% 30.05 in 10.0 mi ENE 3.5 mph - N/A   Clear
8:35 AM 47.7 °F - 31.3 °F 53% 30.05 in 10.0 mi East 4.6 mph - N/A   Clear
8:55 AM 49.8 °F - 33.1 °F 53% 30.04 in 10.0 mi East 4.6 mph - N/A   Clear
9:15 AM 52.5 °F - 35.6 °F 53% 30.03 in 10.0 mi East 3.5 mph - N/A   Clear
9:35 AM 55.0 °F - 38.1 °F 53% 30.03 in 10.0 mi SE 6.9 mph - N/A   Clear
9:55 AM 57.4 °F - 41.0 °F 54% 30.02 in 10.0 mi SSE 4.6 mph - N/A   Clear
10:15 AM 59.5 °F - 43.0 °F 54% 30.02 in 10.0 mi SSW 8.1 mph - N/A   Clear
10:35 AM 60.8 °F - 43.9 °F 54% 30.01 in 7.0 mi South 6.9 mph - N/A   Clear
10:50 AM 62.6 °F - 45.3 °F 53% 30.01 in 10.0 mi SSW 9.2 mph - N/A   Clear
11:15 AM 65.5 °F - 46.4 °F 50% 29.99 in 10.0 mi South 10.4 mph 16.1 mph N/A   Clear
11:35 AM 68.2 °F - 47.3 °F 47% 29.98 in 10.0 mi SSW 16.1 mph 20.7 mph N/A   Scattered Clouds
12:15 PM 70.3 °F - 47.3 °F 44% 29.95 in 10.0 mi SW 12.7 mph 21.9 mph N/A   Clear
12:35 PM 71.4 °F - 47.7 °F 43% 29.93 in 10.0 mi SSW 13.8 mph 21.9 mph N/A   Scattered Clouds
12:55 PM 71.1 °F - 45.5 °F 40% 29.92 in 10.0 mi SW 10.4 mph 20.7 mph N/A   Scattered Clouds
1:15 PM 71.4 °F - 44.8 °F 38% 29.90 in 10.0 mi SW 12.7 mph 24.2 mph N/A   Mostly Cloudy
1:35 PM 70.9 °F - 43.3 °F 37% 29.90 in 10.0 mi WSW 10.4 mph 18.4 mph N/A   Overcast
1:55 PM 70.9 °F - 44.2 °F 38% 29.89 in 10.0 mi WSW 6.9 mph - N/A   Overcast
2:15 PM 70.9 °F - 44.6 °F 39% 29.88 in 10.0 mi West 9.2 mph 19.6 mph N/A   Mostly Cloudy
2:35 PM 70.7 °F - 45.7 °F 41% 29.88 in 10.0 mi West 9.2 mph - N/A   Scattered Clouds
2:55 PM 70.2 °F - 45.5 °F 41% 29.88 in 10.0 mi West 9.2 mph - N/A   Scattered Clouds
3:15 PM 71.2 °F - 45.7 °F 40% 29.88 in 10.0 mi West 8.1 mph - N/A   Scattered Clouds
3:35 PM 70.5 °F - 43.7 °F 38% 29.88 in 10.0 mi West 8.1 mph 17.3 mph N/A   Mostly Cloudy
3:55 PM 69.8 °F - 41.0 °F 35% 29.87 in 10.0 mi West 5.8 mph - N/A   Mostly Cloudy
4:15 PM 71.4 °F - 33.8 °F 25% 29.87 in 10.0 mi WSW 6.9 mph 16.1 mph N/A   Scattered Clouds
4:35 PM 71.2 °F - 35.8 °F 27% 29.87 in 10.0 mi West 6.9 mph - N/A   Clear
4:55 PM 70.7 °F - 35.6 °F 28% 29.87 in 10.0 mi West 6.9 mph 17.3 mph N/A   Clear
5:10 PM 69.8 °F - 36.1 °F 29% 29.87 in 10.0 mi West 9.2 mph - N/A   Clear
5:35 PM 68.0 °F - 38.7 °F 34% 29.88 in 10.0 mi West 6.9 mph - N/A   Clear
5:55 PM 66.7 °F - 40.5 °F 38% 29.89 in 10.0 mi West 3.5 mph - N/A   Clear
6:15 PM 65.3 °F - 41.0 °F 41% 29.90 in 10.0 mi Calm Calm - N/A   Clear
6:35 PM 61.7 °F - 42.1 °F 49% 29.91 in 10.0 mi North 4.6 mph - N/A   Clear
6:55 PM 62.1 °F - 38.5 °F 42% 29.92 in 10.0 mi Calm Calm - N/A   Clear
7:15 PM 60.3 °F - 38.7 °F 45% 29.93 in 10.0 mi NNE 8.1 mph - N/A   Clear
7:35 PM 58.5 °F - 37.6 °F 46% 29.93 in 10.0 mi NE 9.2 mph - N/A   Clear
7:55 PM 57.2 °F - 35.8 °F 45% 29.93 in 10.0 mi NNE 4.6 mph - N/A   Clear
8:15 PM 55.8 °F - 35.6 °F 47% 29.93 in 10.0 mi NE 9.2 mph - N/A   Clear
8:35 PM 54.5 °F - 36.3 °F 50% 29.93 in 10.0 mi NE 8.1 mph - N/A   Clear
8:55 PM 52.9 °F - 36.3 °F 53% 29.94 in 10.0 mi NE 6.9 mph - N/A   Clear
9:15 PM 51.8 °F - 36.5 °F 56% 29.95 in 10.0 mi NE 9.2 mph - N/A   Clear
9:35 PM 50.4 °F - 35.6 °F 57% 29.96 in 10.0 mi NNE 5.8 mph - N/A   Clear
9:55 PM 49.3 °F - 34.0 °F 56% 29.97 in 10.0 mi NE 8.1 mph - N/A   Clear
10:15 PM 48.4 °F - 33.1 °F 56% 29.98 in 10.0 mi NNE 5.8 mph - N/A   Clear
10:35 PM 47.7 °F - 33.4 °F 58% 29.98 in 10.0 mi NE 6.9 mph - N/A   Clear
10:55 PM 47.1 °F - 33.4 °F 59% 29.98 in 10.0 mi NE 6.9 mph - N/A   Clear
11:15 PM 46.4 °F 42.4 °F 32.2 °F 58% 29.97 in 10.0 mi NE 8.1 mph - N/A   Clear
11:35 PM 45.5 °F 41.8 °F 32.2 °F 60% 29.97 in 10.0 mi ENE 6.9 mph - N/A   Clear
11:55 PM 44.6 °F 40.2 °F 32.2 °F 62% 29.96 in 10.0 mi ENE 8.1 mph - N/A   Clear